カタログに戻る

AC1-001

運用中科学SSO
NORAD 66744·PAYLOAD·🇬🇧 United Kingdom

打ち上げ Nov 28, 2025 から Vandenberg Space Force Base

Loading…

次のパス (今後24時間)

TLE

最新Source: Space-Track

元期: Sep 14, 2026, 11:04 UTC

1 66744U 25276CG  26257.46119565  .00001658  00000-0  83241-4 0  9990
2 66744  97.4129 329.0953 0004268  65.7847 294.3833 15.18669353 43959

AllMySatでAC1-001をリアルタイム追跡

Download on the App Store